Вернуться в каталог

FENGYUN 1C DEB

АктивенPO
NORAD 32314·DEBRIS·🇨🇳 China

Запущен May 10, 1999 с Taiyuan Satellite Launch Center

Loading…

Ближайшие Пролёты (ближайшие 24 часа)

TLE

СвежийSource: Space-Track

Эпоха: Sep 12, 2026, 20:10 UTC

1 32314U 99025CXF 26255.84032194  .00003621  00000-0  37089-3 0  9991
2 32314  98.8876  35.6225 0135874   8.9730 351.3863 14.84625900 14518

Отслеживайте FENGYUN 1C DEB в реальном времени с AllMySat

Download on the App Store